Newark, NJ

5:50 PM EST on January 17, 2018 (GMT -0500)
Newark International

Weather History for KEWR - November, 2012

Change the Weather History Date:

Sunday, November 4, 2012

  Actual Average Record
Temperature  
Mean Temperature 46 °F 51 °F  
Max Temperature 53 °F 59 °F 79 °F (1994)
Min Temperature 38 °F 42 °F 26 °F (1951)
Degree Days  
Heating Degree Days 19 14  
Month to date heating degree days 72 56  
Since 1 July heating degree days 299 377  
Cooling Degree Days 0 0  
Month to date cooling degree days 0 0  
Year to date cooling degree days 1450 1191  
Moisture  
Dew Point 30 °F    
Average Humidity 58    
Maximum Humidity 70    
Minimum Humidity 46    
Precipitation  
Precipitation 0.00 in 0.11 in 1.79 in (1947)
Month to date precipitation T 0.47  
Year to date precipitation 29.67 39.26  
Snow  
Snow 0.00 in 0.00 in 0.00 in (2002)
Month to date snowfall 0.0 0.0  
Since 1 July snowfall 0.0 0.0  
Snow Depth 0.00 in    
Sea Level Pressure  
Sea Level Pressure 29.97 in    
Wind  
Wind Speed 10 mph (WNW)    
Max Wind Speed 20 mph    
Max Gust Speed 25 mph    
Visibility 10 miles    
Events      
T = Trace of Precipitation, MM = Missing Value Source: NWS Daily Summary

Daily Weather History Graph

Daily Weather History Graph

Search for Another Location

Airport or City:

Trip Planner

Search our weather history database for the weather conditions in past years. The results will help you decide how hot, cold, wet, or windy it might be!

Date:

Astronomy

Nov. 04, 2012 Rise Set
Actual Time 6:30 AM EST 4:48 PM EST
Civil Twilight 6:02 AM EST 5:17 PM EST
Nautical Twilight 5:29 AM EST 5:50 PM EST
Astronomical Twilight 4:57 AM EST 6:22 PM EST
Moon 9:24 PM EST (11/4) 11:13 AM EST (11/4)
Length of Visible Light 11h 15m
Length of Day
10h 17m
Waning Gibbous, 72% of the Moon is Illuminated
Nov 4
Waning Gibbous
Nov 6
Last Quarter
Nov 13
New
Nov 20
First Quarter
Nov 28
Full

Hourly Weather History & Observations

Time (EST) Temp. Windchill Dew Point Humidity Pressure Visibility Wind Dir Wind Speed Gust Speed Precip Events Conditions
12:51 AM 41.0 °F 35.8 °F 28.9 °F 62% 29.97 in 10.0 mi WNW 8.1 mph - N/A   Partly Cloudy
1:51 AM 39.9 °F 33.9 °F 28.9 °F 65% 29.96 in 10.0 mi West 9.2 mph - N/A   Clear
1:51 AM 39.9 °F 34.5 °F 28.9 °F 65% 29.96 in 10.0 mi WNW 8.1 mph - N/A   Clear
2:51 AM 39.9 °F 34.5 °F 30.0 °F 68% 29.96 in 10.0 mi WNW 8.1 mph - N/A   Clear
3:51 AM 39.0 °F 34.0 °F 30.0 °F 70% 29.96 in 10.0 mi West 6.9 mph - N/A   Clear
4:51 AM 39.0 °F 33.4 °F 30.0 °F 70% 29.97 in 10.0 mi West 8.1 mph - N/A   Clear
5:51 AM 39.0 °F 34.0 °F 30.0 °F 70% 29.98 in 10.0 mi NW 6.9 mph - N/A   Clear
6:51 AM 39.0 °F 34.8 °F 30.0 °F 70% 29.99 in 10.0 mi WNW 5.8 mph - N/A   Scattered Clouds
7:51 AM 42.8 °F 38.0 °F 30.2 °F 61% 30.00 in 10.0 mi WNW 8.1 mph - N/A   Scattered Clouds
8:51 AM 45.0 °F 40.1 °F 30.9 °F 58% 30.00 in 10.0 mi NW 9.2 mph - N/A   Scattered Clouds
9:51 AM 46.9 °F - 30.9 °F 54% 29.99 in 10.0 mi NW 8.1 mph - N/A   Scattered Clouds
10:51 AM 50.0 °F - 30.2 °F 47% 29.97 in 10.0 mi NW 11.5 mph 16.1 mph N/A   Scattered Clouds
11:51 AM 51.1 °F - 32.0 °F 48% 29.96 in 10.0 mi WNW 10.4 mph 17.3 mph N/A   Scattered Clouds
12:51 PM 52.0 °F - 32.0 °F 47% 29.94 in 10.0 mi West 8.1 mph 19.6 mph N/A   Mostly Cloudy
1:51 PM 52.0 °F - 32.0 °F 47% 29.94 in 10.0 mi WNW 13.8 mph 25.3 mph N/A   Mostly Cloudy
2:51 PM 48.9 °F - 30.0 °F 48% 29.94 in 10.0 mi WNW 15.0 mph 24.2 mph N/A   Mostly Cloudy
3:51 PM 48.0 °F - 30.0 °F 50% 29.95 in 10.0 mi WNW 10.4 mph 21.9 mph N/A   Mostly Cloudy
4:51 PM 46.0 °F 40.6 °F 30.0 °F 54% 29.96 in 10.0 mi NW 11.5 mph - N/A   Mostly Cloudy
5:51 PM 45.0 °F 40.6 °F 30.9 °F 58% 29.97 in 10.0 mi NW 8.1 mph - N/A   Mostly Cloudy
6:51 PM 45.0 °F 39.7 °F 30.9 °F 58% 29.98 in 10.0 mi NW 10.4 mph - N/A   Overcast
7:51 PM 44.1 °F 38.1 °F 30.9 °F 60% 29.98 in 10.0 mi NW 11.5 mph - N/A   Overcast
8:51 PM 44.1 °F 38.1 °F 30.0 °F 58% 29.99 in 10.0 mi NW 11.5 mph - N/A   Overcast
9:51 PM 44.1 °F 38.6 °F 30.0 °F 58% 29.99 in 10.0 mi NNW 10.4 mph - N/A   Overcast
10:51 PM 43.0 °F 37.7 °F 30.9 °F 62% 29.99 in 10.0 mi NW 9.2 mph - N/A   Overcast